DEBRISSAT-2 (43680 NORAD) Tracking and Keplerian Element Data

This shows tracking and keplerian element data for the satellite.

Feedback or suggestion? Click here.




ElementValue
Catalog43680
NameDEBRISSAT-2
Epoch Orbit11126
Epoch Day151.69072398
Epoch Year2020
RAAN356.6377
Inclination51.6154
Eccentricity0.0010832
Argument of Perigee273.4515
Mean Anonmoly86.5274
Mean Motion16.42437352
Decay Rate0.1146865
L11 43680U 98067PR 20151.69072398 .11468650 12477-4 51439-3 0 9995
L22 43680 51.6154 356.6377 0010832 273.4515 86.5274 16.42437352111263



Live tracking and technical data element details for DEBRISSAT-2 (NORAD 43680). DEBRISSAT-2 can be tracked NOW for your location showing map with azimuth and elevation plus other details from your city location.







IsCatalogInMostPopularTable: catalog: 43680, numindb: 25879
Update: records affected: 1



GetName: 43680 DEBRISSAT-2

Hit Count: updated at: Sat, 18 Apr 2026 15:49:02 GMT